Location: Fluertsh�userhof
(48.7537°N, 10.3850°E)
Time: 15:45:51
(UTC+00:00)

USA 234 - Pass Details

Date: 18 September 2020
Orbit: 1102 x 1106 km, 123.0° (Epoch: 16 October)

Event Time Altitude Azimuth Distance (km) Brightness Sun altitude
Rises 23:41:41 0° 82° (E) 3,920 6.3 -39.5°
Reaches altitude 10° 23:44:16 10° 76° (ENE) 2,963 5.7 -39.4°
Maximum altitude 23:50:24 45° 7° (N) 1,471 4.1 -39.2°
Enters shadow 23:50:38 45° 1° (N) 1,475 4.1 -39.2°
Exits shadow 23:54:28 21° 307° (NW) 2,258 5.0 -39.0°
Drops below altitude 10° 23:56:32 10° 298° (WNW) 2,967 5.6 -39.0°
Sets 23:59:07 0° 292° (WNW) 3,926 6.2 -38.8°
